Location: Allens Landing
(37.8284°N, 89.7284°W)
Time: 06:17:31
(UTC+00:00)

Vanguard 2 Rocket - Pass Details

Date: 12 November 2024
Orbit: 554 x 3296 km, 32.9° (Epoch: 04 December)

Event Time Altitude Azimuth Distance (km) Brightness Sun altitude
Rises 10:10:40 0° 183° (S) 5,025 10.7 -28.9°
Reaches altitude 10° 10:15:18 10° 165° (SSE) 4,525 10.6 -28.0°
Maximum altitude 10:23:06 18° 129° (SE) 4,596 11.0 -26.5°
Drops below altitude 10° 10:32:51 10° 94° (E) 5,873 12.1 -24.5°
Sets 10:40:17 0° 79° (E) 7,182 12.8 -23.1°
